Location: Byszew
(52.1813°N, 19.2693°E)
Time: 17:21:28
(UTC+00:00)

SPROUT - Pass Details

Date: 09 July 2022
Orbit: 588 x 598 km, 97.9° (Epoch: 09 August)

Event Time Altitude Azimuth Distance (km) Brightness Sun altitude
Exits shadow 00:00:27 22° 210° (SSW) 1,302 ? -13.8°
Maximum altitude 00:02:33 37° 263° (W) 928 ? -13.7°
Drops below altitude 10° 00:06:28 10° 331° (NNW) 1,933 ? -13.5°
Sets 00:08:46 0° 340° (NNW) 2,841 ? -13.4°
